Roros Lufthavn, Norway

6:37 AM CET on December 11, 2019 (GMT +0100)
Roros

Weather History for ENRO - October, 2019

Change the Weather History Date:

Monday, October 21, 2019

  Actual Average Record
Temperature  
Mean Temperature 32 °F -  
Max Temperature 35 °F 35 °F 48 °F (2018)
Min Temperature 28 °F 27 °F 1 °F (2010)
Degree Days  
Heating Degree Days 34    
Moisture  
Dew Point 30 °F    
Average Humidity 91    
Maximum Humidity 100    
Minimum Humidity 75    
Precipitation  
Precipitation 0.00 in - - ()
Sea Level Pressure  
Sea Level Pressure 29.93 in    
Wind  
Wind Speed 3 mph ()    
Max Wind Speed 7 mph    
Max Gust Speed -    
Visibility 6.1 miles    
Events Rain , Snow    
Averages and records for this station are not official NWS values.
T = Trace of Precipitation, MM = Missing Value Source: Averaged Metar Reports

Daily Weather History Graph

Daily Weather History Graph

Search for Another Location

Airport or City:

Astronomy

Oct. 21, 2019 Rise Set
Actual Time 8:16 AM CEST 5:41 PM CEST
Civil Twilight 7:29 AM CEST 6:28 PM CEST
Nautical Twilight 6:36 AM CEST 7:20 PM CEST
Astronomical Twilight 5:43 AM CEST 8:12 PM CEST
Moon 10:18 PM CEST (10/21) 4:43 PM CEST (10/21)
Length of Visible Light 10h 59m
Length of Day
9h 25m
Waning Gibbous, 51% of the Moon is Illuminated
Oct 21
Waning Gibbous
Oct 21
Last Quarter
Oct 28
New
Nov 4
First Quarter
Nov 12
Full

Hourly Weather History & Observations

Time (CEST) Temp. Windchill Dew Point Humidity Pressure Visibility Wind Dir Wind Speed Gust Speed Precip Events Conditions
12:20 AM 32.0 °F - 30.2 °F 93% 29.95 in 6.2 mi Variable 1.2 mph - N/A   Overcast
12:50 AM 32.0 °F - 30.2 °F 93% 29.95 in 6.2 mi Variable 2.3 mph - N/A   Overcast
1:20 AM 32.0 °F - 30.2 °F 93% 29.95 in 6.2 mi Variable 1.2 mph - N/A   Mostly Cloudy
2:20 AM 30.2 °F - 30.2 °F 100% 29.98 in 6.2 mi Variable 1.2 mph - N/A   Overcast
2:50 AM 30.2 °F - 30.2 °F 100% 29.98 in 6.2 mi Variable 2.3 mph - N/A Rain Light Freezing Rain
3:20 AM 28.4 °F 24.6 °F 28.4 °F 100% 29.98 in 6.2 mi West 3.5 mph - N/A Snow Light Snow
3:50 AM 28.4 °F - 28.4 °F 100% 29.98 in 5.0 mi Variable 2.3 mph - N/A Snow Light Snow Showers
4:20 AM 28.4 °F - 28.4 °F 100% 29.98 in 3.7 mi Variable 2.3 mph - N/A Snow Light Snow Showers
4:50 AM 30.2 °F 25.4 °F 30.2 °F 100% 29.98 in 6.2 mi SW 4.6 mph - N/A   Mostly Cloudy
5:20 AM 30.2 °F - 30.2 °F 100% 30.01 in 6.2 mi Variable 1.2 mph - N/A   Overcast
5:50 AM 30.2 °F 26.7 °F 30.2 °F 100% 29.98 in 6.2 mi SSW 3.5 mph - N/A   Overcast
6:20 AM 32.0 °F 25.6 °F 32.0 °F 100% 29.98 in 6.2 mi SW 6.9 mph - N/A   Mostly Cloudy
6:50 AM 32.0 °F 26.4 °F 32.0 °F 100% 30.01 in 6.2 mi SSW 5.8 mph - N/A   Mostly Cloudy
7:20 AM 30.2 °F 26.7 °F 30.2 °F 100% 30.01 in 6.2 mi South 3.5 mph - N/A   Mostly Cloudy
8:20 AM 30.2 °F 26.7 °F 30.2 °F 100% 29.98 in 6.2 mi SSW 3.5 mph - N/A   Mostly Cloudy
8:50 AM 30.2 °F 26.7 °F 30.2 °F 100% 30.01 in 6.2 mi SSW 3.5 mph - N/A   Mostly Cloudy
9:20 AM 30.2 °F 23.4 °F 30.2 °F 100% 30.01 in 6.2 mi SW 6.9 mph - N/A   Mostly Cloudy
9:50 AM 32.0 °F 26.4 °F 30.2 °F 93% 30.01 in 6.2 mi SSW 5.8 mph - N/A   Mostly Cloudy
10:20 AM 32.0 °F 27.5 °F 30.2 °F 93% 30.01 in 6.2 mi SW 4.6 mph - N/A   Mostly Cloudy
10:50 AM 32.0 °F 27.5 °F 30.2 °F 93% 30.01 in 6.2 mi SSW 4.6 mph - N/A   Mostly Cloudy
11:20 AM 35.6 °F - 32.0 °F 87% 30.01 in 6.2 mi Variable 2.3 mph - N/A   Mostly Cloudy
11:50 AM 35.6 °F 30.7 °F 30.2 °F 81% 30.01 in 6.2 mi South 5.8 mph - N/A   Mostly Cloudy
12:20 PM 35.6 °F 30.7 °F 30.2 °F 81% 30.01 in 6.2 mi South 5.8 mph - N/A   Mostly Cloudy
12:50 PM 35.6 °F 32.8 °F 30.2 °F 81% 29.98 in 6.2 mi SSE 3.5 mph - N/A   Mostly Cloudy
1:20 PM 35.6 °F 31.7 °F 30.2 °F 81% 29.98 in 6.2 mi SE 4.6 mph - N/A   Mostly Cloudy
1:50 PM 35.6 °F 32.8 °F 30.2 °F 81% 29.98 in 6.2 mi West 3.5 mph - N/A   Partly Cloudy
2:20 PM 35.6 °F - 28.4 °F 75% 29.95 in 6.2 mi Variable 1.2 mph - N/A   Partly Cloudy
2:50 PM 35.6 °F - 30.2 °F 81% 29.95 in 6.2 mi Variable 2.3 mph - N/A   Partly Cloudy
3:20 PM 35.6 °F 30.7 °F 30.2 °F 81% 29.95 in 6.2 mi NW 5.8 mph - N/A   Partly Cloudy
3:50 PM 35.6 °F 30.7 °F 30.2 °F 81% 29.92 in 6.2 mi WNW 5.8 mph - N/A   Partly Cloudy
4:20 PM 35.6 °F 31.7 °F 30.2 °F 81% 29.92 in - SW 4.6 mph - N/A   Clear
4:50 PM 35.6 °F - 30.2 °F 81% 29.92 in - WSW 2.3 mph - N/A   Clear
5:20 PM 33.8 °F - 30.2 °F 87% 29.92 in - Variable 2.3 mph - N/A   Clear
5:50 PM 33.8 °F - 30.2 °F 87% 29.89 in - Variable 2.3 mph - N/A   Clear
6:20 PM 32.0 °F 28.7 °F 30.2 °F 93% 29.86 in - SSE 3.5 mph - N/A   Clear
6:50 PM 32.0 °F 28.7 °F 30.2 °F 93% 29.86 in - SSW 3.5 mph - N/A   Clear
7:20 PM 32.0 °F 27.5 °F 30.2 °F 93% 29.86 in - SSW 4.6 mph - N/A   Clear
7:50 PM 32.0 °F 28.7 °F 30.2 °F 93% 29.83 in 6.2 mi South 3.5 mph - N/A   Scattered Clouds
8:20 PM 32.0 °F 28.7 °F 30.2 °F 93% 29.83 in 6.2 mi SW 3.5 mph - N/A   Overcast
8:50 PM 32.0 °F - 30.2 °F 93% 29.80 in 6.2 mi Variable 2.3 mph - N/A   Partly Cloudy
9:20 PM 32.0 °F 28.7 °F 30.2 °F 93% 29.77 in 6.2 mi SSE 3.5 mph - N/A   Overcast
9:50 PM 32.0 °F 28.7 °F 30.2 °F 93% 29.77 in 6.2 mi SE 3.5 mph - N/A   Overcast
10:20 PM 33.8 °F 28.6 °F 30.2 °F 87% 29.74 in 6.2 mi SE 5.8 mph - N/A   Mostly Cloudy
11:20 PM 32.0 °F 28.7 °F 30.2 °F 93% 29.74 in 6.2 mi SSE 3.5 mph - N/A   Overcast
11:50 PM 33.8 °F 29.6 °F 30.2 °F 87% 29.71 in 6.2 mi South 4.6 mph - N/A   Scattered Clouds